Total_Precipitation_Accumulation
0.77 0.86 0.94 0.99 1.06 1.15 1.23 1.27 1.29 1.24 1.21 1.11 0.85 0.74 0.67 0.64 0.64 0.55 0.56 0.40 0.23 0.17 0.16 0.16 0.16 0.19 0.29 0.47 0.66 0.81 1.02 1.17 1.24 1.28 1.30 1.35 1.41 1.49
0.85 0.96 0.99 1.00 1.01 1.10 1.22 1.37 1.46 1.42 1.28 1.05 0.91 0.89 0.82 0.69 0.60 0.46 0.41 0.34 0.22 0.16 0.15 0.14 0.14 0.16 0.22 0.35 0.50 0.64 0.80 0.94 1.07 1.18 1.23 1.27 1.31 1.39
0.76 0.88 0.96 0.98 1.01 1.06 1.15 1.23 1.36 1.47 1.33 1.13 1.08 1.11 1.10 0.99 0.79 0.58 0.40 0.31 0.23 0.17 0.13 0.11 0.12 0.19 0.27 0.34 0.44 0.52 0.60 0.69 0.84 0.99 1.11 1.20 1.26 1.30
0.78 0.80 0.80 0.85 0.95 0.97 1.03 1.07 1.17 1.34 1.28 1.19 1.21 1.24 1.23 1.14 0.97 0.75 0.53 0.37 0.30 0.20 0.14 0.11 0.11 0.14 0.18 0.22 0.31 0.45 0.55 0.61 0.66 0.72 0.80 0.93 1.07 1.17
0.70 0.69 0.67 0.68 0.73 0.82 0.91 0.91 0.93 1.05 1.15 1.21 1.29 1.34 1.40 1.26 1.04 0.85 0.68 0.55 0.38 0.26 0.18 0.14 0.13 0.14 0.14 0.15 0.20 0.30 0.44 0.58 0.65 0.69 0.74 0.82 0.89 0.98
0.58 0.55 0.57 0.60 0.61 0.64 0.74 0.78 0.81 0.90 1.01 1.10 1.26 1.40 1.39 1.39 1.24 1.02 0.87 0.76 0.55 0.37 0.30 0.24 0.21 0.17 0.15 0.13 0.14 0.20 0.32 0.49 0.65 0.72 0.78 0.89 0.98 1.00
0.53 0.48 0.47 0.46 0.48 0.54 0.57 0.61 0.66 0.75 0.81 0.89 1.04 1.23 1.30 1.33 1.24 1.06 0.92 0.89 0.75 0.50 0.42 0.40 0.37 0.31 0.28 0.23 0.16 0.15 0.22 0.37 0.58 0.74 0.83 0.93 1.06 1.15
0.45 0.44 0.40 0.37 0.40 0.42 0.40 0.46 0.51 0.55 0.64 0.76 0.84 1.00 1.13 1.16 1.20 1.23 1.09 0.91 0.85 0.74 0.62 0.60 0.55 0.50 0.41 0.32 0.24 0.16 0.16 0.25 0.37 0.54 0.69 0.84 0.96 1.11
0.39 0.40 0.33 0.29 0.34 0.35 0.32 0.30 0.33 0.37 0.44 0.58 0.69 0.78 0.94 1.05 1.12 1.25 1.24 1.16 1.04 0.95 0.85 0.80 0.65 0.57 0.51 0.44 0.35 0.22 0.17 0.16 0.21 0.30 0.41 0.56 0.69 0.82
0.34 0.37 0.36 0.32 0.32 0.33 0.31 0.26 0.22 0.25 0.29 0.36 0.45 0.59 0.80 1.05 1.13 1.13 1.21 1.25 1.20 1.07 0.95 0.97 0.90 0.79 0.73 0.64 0.54 0.36 0.25 0.20 0.19 0.21 0.25 0.31 0.44 0.56
0.30 0.33 0.35 0.33 0.34 0.28 0.28 0.28 0.27 0.25 0.25 0.31 0.36 0.47 0.63 0.85 1.12 1.12 1.03 0.97 0.93 0.74 0.57 0.62 0.77 0.83 0.89 0.87 0.75 0.61 0.45 0.33 0.27 0.28 0.30 0.30 0.36 0.45
0.41 0.40 0.37 0.36 0.34 0.28 0.28 0.31 0.28 0.26 0.25 0.25 0.28 0.35 0.42 0.55 0.79 0.92 0.83 0.69 0.61 0.56 0.39 0.31 0.37 0.45 0.61 0.69 0.69 0.66 0.59 0.55 0.47 0.38 0.33 0.32 0.42 0.44
0.47 0.48 0.42 0.37 0.31 0.28 0.29 0.32 0.31 0.29 0.33 0.32 0.30 0.31 0.37 0.44 0.53 0.65 0.72 0.64 0.52 0.41 0.34 0.30 0.28 0.27 0.32 0.42 0.50 0.53 0.57 0.60 0.57 0.54 0.49 0.44 0.46 0.52
0.56 0.54 0.52 0.44 0.35 0.33 0.33 0.33 0.34 0.33 0.36 0.40 0.37 0.34 0.33 0.35 0.41 0.51 0.57 0.59 0.55 0.46 0.36 0.30 0.30 0.27 0.25 0.28 0.34 0.36 0.42 0.54 0.65 0.72 0.68 0.63 0.60 0.66
0.63 0.61 0.58 0.50 0.41 0.36 0.39 0.39 0.35 0.33 0.36 0.40 0.39 0.33 0.29 0.30 0.37 0.48 0.54 0.52 0.52 0.49 0.39 0.27 0.24 0.26 0.25 0.26 0.27 0.28 0.32 0.42 0.52 0.66 0.79 0.83 0.80 0.78
0.64 0.62 0.58 0.56 0.49 0.44 0.45 0.42 0.37 0.38 0.40 0.38 0.39 0.39 0.37 0.37 0.39 0.43 0.47 0.47 0.44 0.45 0.38 0.29 0.23 0.20 0.23 0.25 0.27 0.29 0.31 0.36 0.39 0.46 0.65 0.86 1.02 1.09
0.80 0.81 0.73 0.63 0.55 0.50 0.48 0.48 0.46 0.48 0.46 0.45 0.45 0.48 0.46 0.40 0.38 0.40 0.45 0.44 0.37 0.34 0.34 0.31 0.25 0.22 0.20 0.16 0.21 0.26 0.29 0.31 0.30 0.29 0.37 0.55 0.80 1.00
0.88 0.88 0.81 0.71 0.60 0.56 0.56 0.55 0.51 0.49 0.46 0.46 0.46 0.48 0.50 0.45 0.39 0.39 0.42 0.44 0.39 0.33 0.30 0.30 0.28 0.26 0.24 0.20 0.12 0.13 0.17 0.19 0.21 0.25 0.31 0.35 0.47 0.57
0.84 0.84 0.77 0.71 0.63 0.59 0.59 0.57 0.52 0.49 0.48 0.48 0.46 0.47 0.50 0.49 0.43 0.40 0.38 0.40 0.41 0.38 0.32 0.29 0.26 0.22 0.20 0.18 0.18 0.10 0.07 0.08 0.11 0.19 0.29 0.30 0.31 0.33
0.79 0.79 0.73 0.67 0.63 0.61 0.58 0.57 0.55 0.52 0.50 0.48 0.48 0.47 0.48 0.46 0.46 0.41 0.36 0.34 0.37 0.38 0.35 0.30 0.23 0.17 0.14 0.14 0.13 0.16 0.13 0.09 0.08 0.11 0.17 0.22 0.23 0.18
0.78 0.74 0.68 0.62 0.59 0.59 0.56 0.54 0.52 0.49 0.48 0.49 0.48 0.46 0.47 0.42 0.40 0.41 0.38 0.37 0.35 0.35 0.33 0.26 0.22 0.19 0.17 0.19 0.19 0.17 0.16 0.14 0.12 0.12 0.13 0.16 0.20 0.23
0.75 0.69 0.65 0.58 0.55 0.54 0.52 0.49 0.49 0.47 0.46 0.47 0.48 0.47 0.47 0.41 0.35 0.36 0.39 0.38 0.32 0.29 0.30 0.28 0.28 0.26 0.23 0.22 0.21 0.17 0.17 0.18 0.17 0.14 0.14 0.13 0.13 0.17
0.65 0.61 0.59 0.54 0.49 0.45 0.43 0.41 0.41 0.42 0.41 0.42 0.42 0.45 0.47 0.41 0.34 0.33 0.35 0.37 0.35 0.32 0.34 0.36 0.33 0.28 0.23 0.20 0.20 0.20 0.20 0.22 0.24 0.26 0.25 0.15 0.07 0.04